Meath Environmental Platform

Observations for Trim Market St

Time AQI Temp °C Hum % Pres Pa CO μg/m³ H₂S μg/m³ NO μg/m³ NO₂ μg/m³ O₃ μg/m³ SO₂ μg/m³ PM1 μg/m³ PM2.5 μg/m³ PM10 μg/m³
Sunday 16 August 2026
21:24 3 19.7 77 11,539 0.21 0 1.55 5.3 58.15 0 0.71 2.26 4.6
21:23 3 19.7 77 12,590 0.23 0 1.44 3.49 56.79 0 1.43 2.74 5.18
21:21 3 19.7 76 14,719 0.02 0 1.5 4.31 61.85 0 0 2.27 4.59
21:18 3 19.8 76 18,531 0 0 1.62 6.81 62.04 0 0 1.81 3.99
21:13 3 19.9 76 21,680 0.01 0 1.53 6.01 56.4 0 0 1.82 3.98
21:12 3 19.9 76 22,624 0.01 0 1.53 6.61 59.11 0 0 1.35 3.38
21:05 3 20 75 27,027 0.22 0 1.53 5.62 55.83 0 0.71 2.33 4.55
21:02 3 20.1 75 28,443 0.18 0 1.27 3.64 64.56 0 1.43 2.34 4.55
21:00 3 20.1 75 28,919 0.01 0 1.25 3.53 58.69 0 0 1.86 3.95
20:59 3 20.1 75 29,350 0.02 0 1.29 7.72 65.22 0 0.71 1.87 3.94
20:58 3 20.1 75 29,888 0.03 0 1.31 7.72 58.46 0 0.71 2.34 5.14
20:57 3 20.1 75 30,497 0.09 0 1.32 10.67 61.8 0 0.71 2.83 5.14
20:56 3 20.2 75 31,037 0.08 0 1.32 6.63 65.02 0 0 1.87 3.94
20:55 3 20.2 75 31,579 0.05 0 1.35 5.28 63.91 0 0 1.88 3.93
20:54 3 20.2 74 32,200 0.01 0 1.37 11.77 59.32 0 0.71 1.88 4.53
20:53 3 20.2 74 32,906 0.06 0 1.29 6.63 64.8 0 1.43 2.36 5.13
20:52 3 20.2 74 33,548 0.18 0 1.3 10.73 57.32 0 0.71 1.89 3.93
20:51 3 20.2 74 34,291 0.13 0 1.37 4.91 64.44 0 1.43 2.37 4.52
20:50 3 20.2 74 34,929 0.07 0 1.33 12.25 64.44 0 2.14 2.86 5.12
20:49 3 20.3 74 35,667 0.13 0 1.3 7.97 60.42 0 0.71 2.38 4.52